Simultaneous Nadir Overpasses (SNOs) Predictions

Prediction of SNOs between TERRA and METOP-C Satellite Orbit:

Table of predicted SNOs for the next 14.0 days since TLE Epoch: 4/13/2024
Index Date (TERRA) Time (TERRA) Lat,Lon (TERRA) SZA (TERRA ) Date (METOP-C) Time (METOP-C) Lat,Lon (METOP-C) SZA (METOP-C ) Distance(km) Time Diff (sec)
1 04/15/2024 10:39:41 78.80, 33.04 69.01 04/15/2024 10:39:01 78.80, 33.09 69.01 1.03 40
2 04/15/2024 11:28:55 -79.10,-157.61 110.63 04/15/2024 11:29:34 -79.10,-157.56 110.62 1.12 39
3 04/18/2024 02:00:04 -78.89, -16.58 111.80 04/18/2024 02:00:01 -78.89, -16.58 111.80 0.21 3
4 04/18/2024 02:48:23 81.08, 169.26 71.43 04/18/2024 02:49:36 80.79, 170.26 71.30 37.18 73
5 04/20/2024 16:31:13 -78.66, 124.38 112.97 04/20/2024 16:30:28 -78.67, 124.41 112.97 0.92 45
6 04/20/2024 17:20:26 79.01, -66.04 67.45 04/20/2024 17:20:59 79.02, -65.96 67.47 1.79 33
7 04/23/2024 07:51:34 78.76, 74.75 66.27 04/23/2024 07:51:26 78.75, 74.71 66.26 1.16 8
8 04/23/2024 08:40:49 -79.03,-116.10 113.41 04/23/2024 08:42:00 -79.01,-116.24 113.42 3.23 71
9 04/25/2024 22:22:42 78.52,-144.28 65.14 04/25/2024 22:21:53 78.51,-144.37 65.12 2.08 49



Historial Predications of SNOs between TERRA and METOP-C
